This is the latest recevied weather packets stored in our database for station/object KB9MLJ. If no packets are shown the sender has not sent any weather packets the latest 10 day(s).
| Time | Temp. | Humidity | Pressure | Rain* | Wind** | Luminosity | Snow |
|---|---|---|---|---|---|---|---|
| 1777964450 | 13.89° C | 69% | 1003.7 hPa | 0 mm | - | 0 W/m² | - |
| 1777964146 | 13.89° C | 70% | 1003.7 hPa | 0 mm | - | 0 W/m² | - |
| 1777963843 | 14.44° C | 70% | 1003.3 hPa | 0 mm | - | 0 W/m² | - |
| 1777963540 | 14.44° C | 70% | 1003 hPa | 0 mm | - | 0 W/m² | - |
| 1777963239 | 15° C | 69% | 1003 hPa | 0 mm | - | 0 W/m² | - |
| 1777962935 | 14.44° C | 69% | 1003 hPa | 0 mm | - | 0 W/m² | - |
| 1777962631 | 15° C | 72% | 1003 hPa | 0 mm | - | 0 W/m² | - |
| 1777962328 | 15° C | 72% | 1002.6 hPa | 0 mm | - | 0 W/m² | - |
| 1777962026 | 15° C | 73% | 1002.6 hPa | 0 mm | - | 0 W/m² | - |
| 1777961723 | 15° C | 74% | 1002.6 hPa | 0 mm | - | 0 W/m² | - |
| 1777961421 | 15.56° C | 76% | 1002.6 hPa | 0 mm | - | 0 W/m² | - |
| 1777961118 | 15.56° C | 77% | 1002.3 hPa | 0 mm | - | 0 W/m² | - |
| 1777960815 | 15.56° C | 78% | 1002.3 hPa | 0 mm | - | 0 W/m² | - |
| 1777960510 | 15.56° C | 81% | 1002.3 hPa | 0 mm | - | 0 W/m² | - |
| 1777960207 | 15.56° C | 80% | 1002.6 hPa | 0 mm | - | 0 W/m² | - |
| 1777959904 | 15.56° C | 81% | 1002.3 hPa | 0 mm | - | 0 W/m² | - |
| 1777959602 | 15.56° C | 82% | 1002 hPa | 0 mm | - | 0 W/m² | - |
| 1777959299 | 15° C | 84% | 1002.3 hPa | 0 mm | - | 0 W/m² | - |
| 1777958995 | 15° C | 84% | 1002 hPa | 0 mm | - | 0 W/m² | - |
| 1777958693 | 15° C | 85% | 1002.3 hPa | 0 mm | - | 0 W/m² | - |
| 1777958390 | 15° C | 86% | 1002.3 hPa | 0 mm | - | 0 W/m² | - |
| 1777958087 | 15° C | 87% | 1002.6 hPa | 0 mm | - | 0 W/m² | - |
| 1777957785 | 14.44° C | 89% | 1002.3 hPa | 0 mm | - | 0 W/m² | - |
| 1777957483 | 14.44° C | 93% | 1002.6 hPa | 0 mm | - | 0 W/m² | - |
| 1777957180 | 13.89° C | 95% | 1002.3 hPa | 0 mm | - | 0 W/m² | - |
* Rain latest hour (hover to see other rain measurements)
** Current wind speed in m/s (hover to see current wind gust speed)